Погода в Багане

Мьянма     21°10′34″N   94°52′13″E
темп.,
°C
ветер,
м/с
пор.,
м/с
влажн.,
%
обл.,
%
осадки,
мм/ч
давл.,
гПа
погр.,
м
9 марта, вт
вт900:30+22зсз12350 0.0 101224
03:30+21ссз12360 0.0 101223
06:30+20ссз123928 0.0 101423
09:30+29с33260 0.0 1015588
12:30+35св33170 0.0 10131741
15:30+37вюв341230 0.0 10093457
18:30+31юв341718 0.0 100931
21:30+26ю112154 0.0 101226
10 марта, ср
ср1000:30+24сз112856 0.0 101223
03:30+22ссз23300 0.0 101225
06:30+20сз11400 0.0 101323
09:30+29с34240 0.0 1015614
12:30+36св33170 0.0 10122163
15:30+37в34134 0.0 10093888
18:30+31вюв341816 0.0 100932
21:30+27юз22220 0.0 101224
11 марта, чт
чт1100:30+24юз22250 0.0 101224
03:30+22зсз22290 0.0 101123
06:30+21ссз23320 0.0 101326
09:30+30с45210 0.0 1015654
12:30+36св32160 0.0 10121945
15:30+38вюв33120 0.0 10093798
18:30+32вюв34150 0.0 101025
21:30+27юз23200 0.0 101227
12 марта, пт
пт1200:30+24з22260 0.0 101324
03:30+23ссз23320 0.0 101225
06:30+22с23320 0.0 101326
09:30+32с45190 0.0 1015662
12:30+38св43130 0.0 10132866
15:30+39всв44110 0.0 10094119
18:30+33вюв34169 0.0 101031
21:30+28всв112018 0.0 101224
13 марта, сб
сб1300:30+25сз23249 0.0 101227
03:30+23с23280 0.0 101124
06:30+22сз22310 0.0 101323
09:30+32с35200 0.0 1014726
12:30+38св44140 0.0 10112918
15:30+39вюв35120 0.0 10074073
18:30+34юв341634 0.0 100735
21:30+29зюз47221 0.0 1010112